Regional Weather Roundup
Issued by NWS

Home | Current Version | Previous Version | Graphics & Text | Print | Product List | Glossary On
Versions: 1 2 3 4 5 6 7 8 9 10 11 12 13 14 15 16 17 18 19 20 21 22 23 24 25 26 27 28 29 30 31 32 33 34 35 36 37 38 39 40 41 42 43 44 45 46 47 48 49 50
000
ASUS43 KLOT 300808
RWRIL

ILLINOIS REGIONAL WEATHER ROUNDUP
NATIONAL WEATHER SERVICE CHICAGO/ROMEOVILLE IL
300 AM CDT SUN AUG 30 2015

NOTE: "FAIR" INDICATES FEW OR NO CLOUDS BELOW 12,000 FEET WITH NO
SIGNIFICANT WEATHER AND/OR OBSTRUCTIONS TO VISIBILITY.

* THESE STATIONS ARE NOT UNDER NWS QUALITY CONTROL. THEY ALSO MAY NOT
  REPORT WEATHER SUCH AS PRECIPITATION OR FOG.

ILZ001-002-007-009-015-016-024-300900-
NORTHWEST ILLINOIS

CITY           SKY/WX    TMP DP  RH WIND       PRES   REMARKS
MOLINE         FOG       60  59  96 CALM      30.03F VSB 1/4
STERLING*      CLOUDY   N/A N/A N/A CALM      30.01F
SAVANNA*       CLOUDY    66  64  90 CALM      30.03F
$$

ILZ003-004-008-010-011-017-018-300900-
NORTH CENTRAL ILLINOIS

CITY           SKY/WX    TMP DP  RH WIND       PRES   REMARKS
ROCKFORD       CLOUDY    66  62  87 NE5       30.04F
FREEPORT*      CLOUDY    63  63  98 CALM      30.05F FOG
ROCHELLE*      CLOUDY    65  64  97 CALM      30.04F FOG
DE KALB*       CLOUDY    64  64  98 CALM      30.04F FOG
PERU*          MOCLDY    66  64  95 NE3       30.03F FOG
$$

ILZ005-006-012>014-019>023-300900-
NORTHEAST ILLINOIS

CITY           SKY/WX    TMP DP  RH WIND       PRES   REMARKS
CHICAGO-OHARE  CLOUDY    65  64  97 N5        30.02F FOG
CHICAGO-MIDWAY CLOUDY    67  64  90 N3        30.02S FOG
AURORA         CLOUDY    67  65  93 N3        30.04S FOG
LANSING*       CLOUDY    65  64  97 N5        30.02S FOG
JOLIET*        FOG       67  67  98 N6        30.02S VSB 1
WAUKEGAN       CLOUDY    63  63 100 CALM      30.02F FOG
DUPAGE AIRPORT CLOUDY    66  63  90 NW5       30.03S FOG
KANKAKEE*      CLOUDY    67  66  97 CALM      30.02S FOG
WHEELING       CLOUDY    64  63  96 CALM      30.03F FOG
MORRIS*        FOG       65  65  97 CALM      30.01S VSB 1/4
ROMEOVILLE*    CLOUDY    65  65  99 N5        30.03R FOG
NORTHERLY ISL    N/A     62  60  93 NE1         N/A
$$

LMZ740>746-300900-
SOUTHERN LAKE MICHIGAN

STATION/POSITION SKY/WX   TEMP    WIND        PRES    VSBY  WAVE
                          AIR SEA DIR/SP/G                  HT/PER
                          (F)     (DEG/KT/KT) (MB)    (MI)  (FT/S)
SOUTHERN BUOY              67 68   CALM  /  2 1015.8F         1
WILMETTE HARBOR            58 58  120/  6/  8   N/A           1/ 3
HARRISON CRIB              60     320/ 10/ 13   N/A
BURNHAM HARBOR             62      CALM  /  6   N/A
BURNS HARBOR               67     360/  5/  7 1016.9F
MICHIGAN CITY              67     300/  9/ 10   N/A
MICHIGAN CITY 6N           68 71  340/  4/  6   N/A           1/ 2
ST. JOSEPH                 69 70  350/  4/  6   N/A           1
$$

ILZ025>027-034>036-040-047-049-050-058-095>099-300900-
WEST-CENTRAL ILLINOIS

CITY           SKY/WX    TMP DP  RH WIND       PRES   REMARKS
QUINCY         FOG       66  65  96 NE6       30.01S VSB 1/4
GALESBURG*     CLOUDY    67  66  99 N5        30.03S FOG
MACOMB*        CLOUDY    68  67  99 CALM      30.04S FOG
JACKSONVILLE*  CLEAR     69  67  92 S3        30.00F
PITTSFIELD*    FOG       68  66  94 CALM      30.01F VSB 1/4
$$

ILZ028>032-037-038-041>044-048-051>054-059>061-300900-
CENTRAL ILLINOIS

CITY           SKY/WX    TMP DP  RH WIND       PRES   REMARKS
PONTIAC        CLOUDY    66  66 100 CALM      30.02F FOG
BLOOMINGTON    MOCLDY    68  68 100 NE3       30.03S FOG
DECATUR        MOCLDY    70  65  84 SW6       30.02S
PEORIA         CLOUDY    71  67  87 NE5       30.01F
LACON*         PTCLDY    66  65  95 CALM      30.01F FOG
LINCOLN*       CLOUDY    70  67  89 CALM      30.00S
SPRINGFIELD    MOCLDY    70  66  87 CALM      30.00F
TAYLORVILLE    MOCLDY    64  64 100 S3        30.01F
$$

ILZ033-039-045-046-055>057-062-063-300900-
EAST-CENTRAL ILLINOIS

CITY           SKY/WX    TMP DP  RH WIND       PRES   REMARKS
CHAMPAIGN      MOCLDY    69  66  90 SW3       30.02F FOG
RANTOUL*       PTCLDY    69  68  97 CALM      30.01F FOG
MATTOON        CLEAR     68  64  87 S6        30.02S
PARIS*         PTCLDY    66  64  96 S3        30.03S
$$

ILZ079-100>102-300900-
SOUTHWEST ILLINOIS

CITY           SKY/WX    TMP DP  RH WIND       PRES   REMARKS
ALTON          PTCLDY    67  66  96 S3        30.01S
BELLEVILLE     MOCLDY    70  68  93 E1        30.00F
CAHOKIA*       CLOUDY    72  65  78 CALM      30.01S
SPARTA*        CLOUDY    70  68  94 CALM      30.02F
$$

ILZ064>066-069>071-074>076-080>082-084>086-088>090-092>094-300900-
SOUTH-CENTRAL ILLINOIS

CITY           SKY/WX    TMP DP  RH WIND       PRES   REMARKS
CARBONDALE     CLOUDY    70  68  93 CALM      30.02S
CAIRO*         CLOUDY    70  70 100 CALM      30.04S
EFFINGHAM*     CLOUDY    69  63  81 CALM      30.04S
MARION         CLOUDY    72  66  83 S5        30.03F
MT. VERNON     CLOUDY    66  61  82 N3        30.03S
SALEM*         CLOUDY    71  64  79 S6        30.01F
METROPOLIS*    CLOUDY    73  72  96 CALM      30.04S
$$

ILZ067-068-072-073-078-083-087-091-300900-
SOUTHEAST ILLINOIS

CITY           SKY/WX    TMP DP  RH WIND       PRES   REMARKS
LAWRENCEVILLE  MOCLDY    70  68  93 CALM      30.03F FOG
FLORA*         MOCLDY    66  64  93 S3        30.03S
FAIRFIELD*     PTCLDY    64  64  99 CALM      30.02F FOG
HARRISBURG*    CLOUDY    70  69  96 SE5       30.03F
ROBINSON*      PTCLDY    66  65  96 CALM      30.03F FOG
CARMI*         PTCLDY    68  67  99 CALM      30.03S FOG
$$

ABBREVIATIONS USED IN REMARKS
   TC - TEMPERATURE IN CELSIUS
  WCI - WIND CHILL INDEX
   HX - HEAT INDEX
  VSB - VISIBILITY
$$



USA.gov is the U.S. government's official web portal to all federal, state and local government web resources and services.